Regional Weather Roundup
Issued by NWS

Home | Current Version | Previous Version | Graphics & Text | Print | Product List | Glossary On
Versions: 1 2 3 4 5 6 7 8 9 10 11 12 13 14 15 16 17 18 19 20 21 22 23 24 25 26 27 28 29 30 31 32 33 34 35 36 37 38 39 40 41 42 43 44 45 46 47 48 49 50
000
ASUS43 KOAX 230302
RWRNE

WEATHER ROUNDUP FOR NEBRASKA
NATIONAL WEATHER SERVICE OMAHA NE
1000 PM CDT SAT APR 22 2017

NOTES: SATELLITE DATA IS BEING USED TO AUGMENT CLOUD COVER ABOVE
       12000 FEET.
       "FAIR" INDICATES FEW OR NO CLOUDS BELOW 12,000 FEET WITH NO
       SIGNIFICANT WEATHER AND/OR OBSTRUCTIONS TO VISIBILITY.

  * THESE STATIONS DO NOT REPORT WEATHER SUCH AS RAIN...SNOW OR FOG.

NEZ001>004-019>022-054>056-230400-
NEBRASKA PANHANDLE

CITY           SKY/WX    TMP DP  RH WIND       PRES   REMARKS
SCOTTSBLUFF    CLEAR     50  29  44 S9        30.15S
ALLIANCE       CLEAR     42  30  62 S12       30.15S
CHADRON        CLEAR     54  31  41 S13       30.09S
KIMBALL        CLEAR     43  36  75 S12       30.19S
SIDNEY         CLEAR     39  33  79 S12       30.21S WCI  32
$$

NEZ057>060-069>072-079>082-230400-
SOUTHWEST NEBRASKA

CITY           SKY/WX    TMP DP  RH WIND       PRES   REMARKS
NORTH PLATTE   CLEAR     44  30  57 E5        30.20F
IMPERIAL       CLEAR     46  34  62 SW6       30.22R
LEXINGTON      HAZE      49  29  45 SE6       30.23R VSB 1
MCCOOK         CLEAR     49  29  46 S5        30.22R
OGALLALA       CLEAR     48  28  47 CALM      30.20R
$$

NEZ005>010-023>029-035>040-094-230400-
NORTH CENTRAL NEBRASKA

CITY           SKY/WX    TMP DP  RH WIND       PRES   REMARKS
VALENTINE      CLEAR     51  26  37 S8        30.14R
AINSWORTH      CLEAR     45  36  69 S7        30.16S
BROKEN BOW     CLEAR     40  29  64 CALM      30.20S
O`NEILL        CLEAR     54  32  43 SE5       30.18S
ORD            CLEAR     44  35  70 SW8       30.19S
THEDFORD       CLEAR     53  25  33 S9        30.19S
$$

NEZ041-046>049-061>064-073>077-083>087-230400-
SOUTH CENTRAL NEBRASKA

CITY           SKY/WX    TMP DP  RH WIND       PRES   REMARKS
GRAND ISLAND   CLEAR     50  31  48 CALM      30.23R
AURORA         CLEAR     50  27  40 CALM      30.22R
HASTINGS       CLEAR     49  27  42 CALM      30.24R
HEBRON         CLEAR     47  32  55 CALM      30.22R
HOLDREGE       CLEAR     50  26  39 CALM      30.23R
KEARNEY *      CLEAR     55  27  33 CALM      30.23R
YORK           CLEAR     50  30  46 CALM      30.23R
$$

NEZ011>018-030>034-042>045-230400-
NORTHEAST NEBRASKA

CITY           SKY/WX    TMP DP  RH WIND       PRES   REMARKS
NORFOLK        CLEAR     48  32  53 S5        30.19S
ALBION         CLEAR     49  34  56 CALM      30.21R
BLAIR          CLEAR     55  33  42 N3        30.20R
FREMONT        CLEAR     50  35  56 CALM      30.21R
TEKAMAH        CLEAR     50  44  80 W3        30.20R
WAYNE          CLEAR     47  34  61 S3        30.19S
$$

NEZ050>053-065>068-078-088>093-230400-
SOUTHEAST NEBRASKA

CITY           SKY/WX    TMP DP  RH WIND       PRES   REMARKS
LINCOLN        CLEAR     51  36  56 CALM      30.22R
OMAHA EPPLEY   CLEAR     56  34  43 CALM      30.19R
BEATRICE       CLEAR     46  36  69 N5        30.20R
FALLS CITY     CLEAR     54  31  41 CALM      30.18R
NEBRASKA CITY  CLEAR     54  25  32 N5        30.20R
PLATTSMOUTH    CLEAR     56  22  26 CALM      30.20R
$$

NEZ044-045-051>053-067-230400-
OMAHA AREA

CITY           SKY/WX    TMP DP  RH WIND       PRES   REMARKS
OMAHA EPPLEY   CLEAR     56  34  43 CALM      30.19R
BLAIR          CLEAR     55  33  42 N3        30.20R
FREMONT        CLEAR     50  35  56 CALM      30.21R
MILLARD        CLEAR     54  37  53 CALM      30.20R
OFFUTT AFB     CLEAR     46  37  72 CALM      30.19R
PLATTSMOUTH    CLEAR     56  22  26 CALM      30.20R
WAHOO          FAIR      53  32  45 N3        30.21R
$$




USA.gov is the U.S. government's official web portal to all federal, state and local government web resources and services.